Tracking 29892 objects as of 21-Nov-2024
HD Live streaming from Space Station
objects crossing your sky now

ZHIHUI TIANWANG-1 01A

Track ZHIHUI TIANWANG-1 01A now!


NORAD ID: 59705
Int'l Code: 2024-087A
Perigee: 20,167.7 km
Apogee: 20,211.0 km
Inclination: 53.1 °
Period: 718.0 minutes
Semi major axis: 26560 km
RCS: Unknown
Launch date: May 9, 2024
Source: People's Republic of China (PRC)
Launch site: Xichang Space Center, China (XSC)
Your satellite tracking list
Your tracking list is empty




NASA's NSSDC Master Catalog

Two Line Element Set (TLE):
1 59705U 24087A   24325.26633736  .00000013  00000-0  00000-0 0  9993
2 59705  53.1347 194.2255 0008140 191.0925 168.9730  2.00563566  3795
Source of the keplerian elements: AFSPC